Hourly Weather Ruch

Today, 14 April, Wednesday

Time Temperature Precipitation Wind Pressure Humidity
00:00 +7°C° 0 mm 3 mps 757 mmHg 95%
01:00 +7°C° 0 mm 3 mps 757 mmHg 95%
02:00 +5°C° 0 mm 3 mps 757 mmHg 96%
03:00 +5°C° 0 mm 3 mps 757 mmHg 97%
04:00 +5°C° 0 mm 3 mps 757 mmHg 99%
05:00 +7°C° 0 mm 3 mps 756 mmHg 99%
06:00 +7°C° 0 mm 3 mps 756 mmHg 99%
07:00 +7°C° 0 mm 3 mps 756 mmHg 99%
08:00 +8°C° 0 mm 3 mps 755 mmHg 97%
09:00 +9°C° 0 mm 3 mps 755 mmHg 96%
10:00 +10°C° 0 mm 4 mps 755 mmHg 95%
11:00 +11°C° 0 mm 4 mps 755 mmHg 90%
12:00 +12°C° 0 mm 4 mps 754 mmHg 86%
13:00 +13°C° 0 mm 4 mps 754 mmHg 81%
14:00 +14°C° 0 mm 4 mps 754 mmHg 78%
15:00 +14°C° 0 mm 4 mps 753 mmHg 76%
16:00 +15°C° 0 mm 4 mps 753 mmHg 73%
17:00 +14°C° 0 mm 5 mps 753 mmHg 73%
18:00 +14°C° 0 mm 5 mps 752 mmHg 73%
19:00 +13°C° 0 mm 5 mps 752 mmHg 73%
20:00 +13°C° 0 mm 5 mps 751 mmHg 75%
21:00 +12°C° 0 mm 5 mps 751 mmHg 76%
22:00 +11°C° 0 mm 6 mps 751 mmHg 77%
23:00 +10°C° 0 mm 5 mps 750 mmHg 79%

Tomorrow, 15 April, Thursday

Time Temperature Precipitation Wind Pressure Humidity
00:00 +9°C° 0 mm 5 mps 750 mmHg 80%
01:00 +9°C° 0 mm 5 mps 749 mmHg 82%
02:00 +9°C° 0 mm 5 mps 750 mmHg 84%
03:00 +8°C° 0 mm 5 mps 750 mmHg 86%
04:00 +8°C° 0 mm 5 mps 750 mmHg 87%
05:00 +6°C° 0.2 mm 4 mps 750 mmHg 90%
06:00 +4°C° 0.2 mm 4 mps 751 mmHg 93%
07:00 +3°C° 0.2 mm 3 mps 752 mmHg 95%
08:00 +3°C° 0.3 mm 3 mps 752 mmHg 89%
09:00 +3°C° 0.3 mm 3 mps 753 mmHg 82%
10:00 +3°C° 0.3 mm 3 mps 753 mmHg 76%
11:00 +4°C° 0 mm 3 mps 754 mmHg 67%
12:00 +5°C° 0 mm 4 mps 754 mmHg 58%
13:00 +6°C° 0 mm 4 mps 754 mmHg 49%
14:00 +6°C° 0 mm 4 mps 755 mmHg 48%
15:00 +6°C° 0 mm 4 mps 755 mmHg 47%
16:00 +5°C° 0 mm 4 mps 755 mmHg 46%
17:00 +5°C° 0 mm 3 mps 756 mmHg 50%
18:00 +4°C° 0 mm 3 mps 756 mmHg 53%
19:00 +3°C° 0 mm 3 mps 757 mmHg 57%
20:00 +2°C° 0 mm 3 mps 757 mmHg 61%
21:00 +2°C° 0 mm 2 mps 758 mmHg 65%
22:00 +1°C° 0 mm 2 mps 758 mmHg 69%
23:00 -1°C° 0 mm 2 mps 759 mmHg 73%

Day after tomorrow, 16 April, Friday

Time Temperature Precipitation Wind Pressure Humidity
00:00 -1°C° 0 mm 2 mps 759 mmHg 77%
01:00 0°C° 0 mm 1 mps 760 mmHg 80%
02:00 0°C° 0 mm 1 mps 760 mmHg 82%
03:00 0°C° 0 mm 1 mps 760 mmHg 83%
04:00 0°C° 0 mm 1 mps 761 mmHg 85%
05:00 0°C° 0 mm 1 mps 761 mmHg 82%
06:00 +1°C° 0 mm 1 mps 761 mmHg 78%
07:00 0°C° 0 mm 0 mps 761 mmHg 75%
08:00 +3°C° 0 mm 1 mps 761 mmHg 67%
09:00 +3°C° 0 mm 2 mps 761 mmHg 59%
10:00 +4°C° 0 mm 2 mps 761 mmHg 51%
11:00 +4°C° 0 mm 3 mps 761 mmHg 48%
12:00 +4°C° 0 mm 3 mps 761 mmHg 44%
13:00 +5°C° 0 mm 3 mps 760 mmHg 41%
14:00 +6°C° 0 mm 4 mps 760 mmHg 42%
15:00 +6°C° 0 mm 4 mps 759 mmHg 43%
16:00 +6°C° 0 mm 4 mps 759 mmHg 44%
17:00 +6°C° 0 mm 4 mps 759 mmHg 49%
18:00 +5°C° 0 mm 4 mps 758 mmHg 53%
19:00 +5°C° 0 mm 4 mps 758 mmHg 57%
20:00 +4°C° 0 mm 3 mps 758 mmHg 63%
21:00 +3°C° 0 mm 3 mps 758 mmHg 70%
22:00 +2°C° 0 mm 3 mps 758 mmHg 76%
23:00 +2°C° 0 mm 2 mps 758 mmHg 79%

17 April, Saturday

Time Temperature Precipitation Wind Pressure Humidity
00:00 +2°C° 0 mm 2 mps 758 mmHg 83%
01:00 +1°C° 0 mm 2 mps 759 mmHg 86%
02:00 +1°C° 0 mm 2 mps 759 mmHg 88%
03:00 -1°C° 0 mm 2 mps 758 mmHg 91%
04:00 -1°C° 0 mm 2 mps 758 mmHg 93%
05:00 +1°C° 0 mm 2 mps 758 mmHg 89%
06:00 0°C° 0 mm 3 mps 758 mmHg 85%
07:00 +1°C° 0 mm 3 mps 758 mmHg 81%
08:00 +2°C° 0.1 mm 3 mps 758 mmHg 76%
09:00 +1°C° 0.1 mm 4 mps 757 mmHg 70%
10:00 +3°C° 0.1 mm 4 mps 757 mmHg 65%
11:00 +3°C° 0 mm 5 mps 757 mmHg 59%
12:00 +5°C° 0 mm 5 mps 757 mmHg 53%
13:00 +5°C° 0 mm 5 mps 757 mmHg 47%
14:00 +5°C° 0 mm 5 mps 757 mmHg 49%
15:00 +5°C° 0 mm 5 mps 757 mmHg 51%
16:00 +5°C° 0 mm 5 mps 757 mmHg 53%
17:00 +5°C° 0 mm 5 mps 756 mmHg 58%
18:00 +3°C° 0 mm 5 mps 756 mmHg 63%
19:00 +3°C° 0 mm 5 mps 755 mmHg 68%
20:00 +2°C° 0.1 mm 5 mps 755 mmHg 71%
21:00 +2°C° 0.1 mm 6 mps 755 mmHg 73%
22:00 +1°C° 0.1 mm 6 mps 756 mmHg 76%
23:00 0°C° 0.2 mm 5 mps 756 mmHg 78%

18 April, Sunday

Time Temperature Precipitation Wind Pressure Humidity
00:00 -1°C° 0.2 mm 5 mps 757 mmHg 80%
01:00 -2°C° 0.2 mm 4 mps 757 mmHg 82%
02:00 -3°C° 0 mm 4 mps 758 mmHg 79%
03:00 -4°C° 0 mm 3 mps 758 mmHg 76%
04:00 -5°C° 0 mm 3 mps 759 mmHg 74%
05:00 -4°C° 0 mm 3 mps 760 mmHg 70%
06:00 -4°C° 0 mm 3 mps 760 mmHg 65%
07:00 -4°C° 0 mm 3 mps 761 mmHg 61%
08:00 -2°C° 0 mm 3 mps 761 mmHg 57%
09:00 -1°C° 0 mm 3 mps 762 mmHg 52%
10:00 0°C° 0 mm 3 mps 762 mmHg 48%
11:00 0°C° 0 mm 3 mps 762 mmHg 45%
12:00 +1°C° 0 mm 3 mps 763 mmHg 41%
13:00 +2°C° 0 mm 3 mps 763 mmHg 38%
14:00 +2°C° 0 mm 3 mps 763 mmHg 37%
15:00 +2°C° 0 mm 3 mps 763 mmHg 35%
16:00 +3°C° 0 mm 2 mps 764 mmHg 34%
17:00 +3°C° 0 mm 2 mps 764 mmHg 39%
18:00 +2°C° 0 mm 2 mps 764 mmHg 44%
19:00 +2°C° 0 mm 1 mps 764 mmHg 49%
20:00 +1°C° 0 mm 1 mps 765 mmHg 54%
21:00 0°C° 0 mm 1 mps 765 mmHg 59%
22:00 -1°C° 0 mm 1 mps 765 mmHg 64%
23:00 -1°C° 0 mm 1 mps 766 mmHg 64%

19 April, Monday

Time Temperature Precipitation Wind Pressure Humidity
00:00 -1°C° 0 mm 1 mps 766 mmHg 64%
01:00 -2°C° 0 mm 1 mps 766 mmHg 64%
02:00 -2°C° 0 mm 1 mps 766 mmHg 64%
03:00 -3°C° 0 mm 0 mps 766 mmHg 63%
04:00 -3°C° 0 mm 0 mps 767 mmHg 63%
05:00 -2°C° 0 mm 0 mps 767 mmHg 59%
06:00 -1°C° 0 mm 0 mps 767 mmHg 55%
07:00 0°C° 0 mm 0 mps 767 mmHg 52%
08:00 +2°C° 0 mm 1 mps 767 mmHg 46%
09:00 +3°C° 0 mm 1 mps 767 mmHg 40%
10:00 +5°C° 0 mm 1 mps 766 mmHg 34%
11:00 +5°C° 0 mm 1 mps 766 mmHg 32%
12:00 +6°C° 0 mm 1 mps 766 mmHg 29%
13:00 +6°C° 0 mm 2 mps 765 mmHg 27%
14:00 +6°C° 0 mm 2 mps 765 mmHg 28%
15:00 +6°C° 0 mm 2 mps 765 mmHg 29%
16:00 +7°C° 0 mm 2 mps 765 mmHg 30%
17:00 +7°C° 0 mm 1 mps 764 mmHg 36%
18:00 +6°C° 0 mm 1 mps 764 mmHg 42%
19:00 +4°C° 0 mm 0 mps 764 mmHg 48%
20:00 +4°C° 0 mm 1 mps 764 mmHg 51%
21:00 +3°C° 0 mm 1 mps 764 mmHg 55%
22:00 +2°C° 0 mm 1 mps 764 mmHg 59%
23:00 +2°C° 0 mm 1 mps 764 mmHg 62%
Show more